Showing default

TDS 1, 40076

Orbit data source: Space-Track

TDS 1, 40076 is a payload satellite owned by UK TSB (UK) in SSO that was launched on Tue, 08 Jul 2014 UTC via a SOYUZ-2-1B launch vehicle from the Tyuratam Missile And Space Complex (TTMTR). Payloads include a variety of satellites, spacecraft, and rockets equipped with specific instruments for various scientific and technological missions. These include communications satellites like Starlink; space stations such as the ISS; scientific satellites like the Hubble; Earth observation satellites from companies like Planet Labs, Umbra, and HawkEye 360; GPS; miniature CubeSats for education and research; and military/defense satellites.

Loading next visibility...
TDS 1 details
Identifier
40076, 2014-037H
Orbit
SSO
Last TLE update10 hours ago
Origin
Flag of UKUK TSB (UK)
ManufacturerSSTL (Astrium)
MissionPartially operational Civil Technology
Bus & MotorSSTL-150, AOCS
Mass157 kg wet, 157 kg dry
Launch date (UTC)
2014-07-08 (10 years ago)
Launch vehicle
SOYUZ-2-1B
Launch site
Tyuratam Missile And Space Complex (TTMTR)
Object type
Payload
Rocket body
Debris
Shape & HBRBox, 1 m
Radar Cross Section1.500 m², Medium (>0.1 m² and < 1m²)

Expand to show TLE details & history

TLE from 10 hours ago
0 TDS 1
1 40076U 14037H   24361.06909944  .00015617  00000-0  12336-2 0  9996
2 40076  98.3297 296.0509 0004388 267.3890  92.6830 15.00776572567237
Epoch: 2024-12-26T01:39Z
Definitive object data (Epoch: 2024-12-26T01:39:30.191Z)
Latitude
Longitude176.12131°
Altitude567.681 km
Speed7.577 km/s
True Right ascension19h 44m 12s
True Declination0° 00' 00"
Sunlit
Object was in daylight at TLE epoch
Visualization TLE readout
Latitude-4.84994°
Longitude177.25672°
Altitude568.211 km
Speed7.577 km/s
Apparent Right ascension20h 57m 14s
Apparent Declination-22° 48' 22"
Sunlit
Object is in daylight
Visualization observer readout
Local Sidereal Time10:35:34
Azimuth57.897° ENE
Elevation-63.082°
Doppler factor1
Orbital elements
Apogee altitude564.579 km
Perigee altitude558.488 km
Semi-major axis6,939.67 km
Eccentricity0.0004388
Inclination98.3297°
RAAN296.0509°
Arg. of periapsis267.389°
True anomaly92.73323°
Mean anomaly92.683°
Eccentric anomaly92.70811°
Mean motion3.75435 °/min
BSTAR0.0012336
Orbital period95.89 mins
Loading maneuver chart data...
Loading historical data...
Loading historical data...
Loading historical data...
Loading historical data...
Loading historical data...
Loading historical data...
Loading historical data...

TDS 1 Visibility forecast

Observer location: undefined°, undefined

Span
Click to sort rows by Start time (UTC) header in descending order
Start Az.
Max El. time (UTC)
Max El. Az.
Max El.
End time (UTC)
End Az.
7 mins2024-12-26 19:23:15.412Z138.708° SSE2024-12-26 19:27:15.412Z53.276° ENE30.914°2024-12-26 19:30:15.412Z4.52° NNE
6 mins2024-12-27 08:38:15.412Z23.538° NE2024-12-27 08:41:15.412Z124.829° SE41.444°2024-12-27 08:44:15.412Z182.05° SSW
|